| time (UTC) | temp F | wind direction | speed knots | gust knots | rain 1hr in | rain 24hr in | rain mn in | humidity % | barometer mb |
| 20260506202017 | 59 | 238 | 0.9 | 3.5 | 0.00 | 0.28 | 0.28 | 92 | 1007.0 |
| 20260506201516 | 59 | 284 | 0.0 | 3.5 | 0.00 | 0.28 | 0.28 | 93 | 1007.0 |
| 20260506201035 | 59 | 300 | 0.0 | 1.7 | 0.00 | 0.28 | 0.28 | 93 | 1007.0 |
| 20260506200552 | 59 | 262 | 0.0 | 1.7 | 0.00 | 0.28 | 0.28 | 93 | 1006.9 |
| 20260506200027 | 58 | 262 | 0.0 | 1.7 | 0.00 | 0.28 | 0.28 | 93 | 1007.0 |
| 20260506195525 | 58 | 252 | 0.0 | 1.7 | 0.00 | 0.28 | 0.28 | 93 | 1007.1 |
| 20260506195023 | 58 | 250 | 0.0 | 2.6 | 0.00 | 0.28 | 0.28 | 93 | 1007.1 |
| 20260506194524 | 58 | 269 | 0.9 | 2.6 | 0.00 | 0.28 | 0.28 | 93 | 1007.4 |
| 20260506194026 | 58 | 242 | 0.9 | 2.6 | 0.00 | 0.28 | 0.28 | 93 | 1007.1 |
| 20260506193526 | 58 | 224 | 0.0 | 2.6 | 0.01 | 0.28 | 0.28 | 93 | 1007.2 |
| 20260506193025 | 58 | 250 | 0.0 | 1.7 | 0.01 | 0.28 | 0.28 | 93 | 1007.3 |
| 20260506192544 | 58 | 281 | 0.9 | 1.7 | 0.01 | 0.28 | 0.28 | 93 | 1007.4 |
| 20260506192023 | 58 | 207 | 0.0 | 2.6 | 0.01 | 0.28 | 0.28 | 93 | 1007.5 |
| 20260506191521 | 58 | 222 | 0.0 | 3.5 | 0.01 | 0.28 | 0.28 | 93 | 1007.5 |
| 20260506191018 | 58 | 288 | 0.9 | 3.5 | 0.01 | 0.28 | 0.28 | 94 | 1007.5 |
| 20260506190515 | 58 | 259 | 0.0 | 0.9 | 0.01 | 0.28 | 0.28 | 94 | 1007.5 |
| 20260506190028 | 58 | 276 | 0.0 | 1.7 | 0.01 | 0.28 | 0.28 | 94 | 1007.6 |
| 20260506185524 | 58 | 250 | 0.0 | 1.7 | 0.01 | 0.28 | 0.28 | 93 | 1007.6 |
| 20260506185022 | 58 | 273 | 0.0 | 3.5 | 0.01 | 0.28 | 0.28 | 94 | 1007.6 |
| 20260506184523 | 58 | 241 | 0.0 | 3.5 | 0.02 | 0.28 | 0.28 | 94 | 1007.6 |
| 20260506184022 | 58 | 221 | 0.0 | 0.9 | 0.02 | 0.28 | 0.28 | 94 | 1007.7 |
| 20260506183521 | 58 | 208 | 0.0 | 0.9 | 0.01 | 0.27 | 0.27 | 93 | 1007.7 |
| 20260506183021 | 58 | 208 | 0.0 | 0.9 | 0.01 | 0.27 | 0.27 | 93 | 1007.8 |
| 20260506182520 | 58 | 195 | 0.0 | 0.9 | 0.02 | 0.27 | 0.27 | 93 | 1007.8 |
| 20260506182018 | 58 | 194 | 0.0 | 0.9 | 0.02 | 0.27 | 0.27 | 93 | 1007.8 |
| 20260506181535 | 58 | 194 | 0.0 | 0.9 | 0.02 | 0.27 | 0.27 | 93 | 1007.9 |
| 20260506181051 | 58 | 238 | 0.0 | 0.9 | 0.02 | 0.27 | 0.27 | 93 | 1008.0 |
| 20260506180527 | 58 | 269 | 0.0 | 0.0 | 0.02 | 0.27 | 0.27 | 93 | 1008.0 |
| 20260506180035 | 58 | 269 | 0.0 | 0.0 | 0.02 | 0.27 | 0.27 | 93 | 1008.0 |
| 20260506175531 | 58 | 239 | 0.0 | 2.6 | 0.02 | 0.27 | 0.27 | 93 | 1008.0 |
| 20260506175030 | 58 | 318 | 0.0 | 2.6 | 0.02 | 0.27 | 0.27 | 93 | 1008.0 |
| 20260506174529 | 58 | 245 | 0.0 | 3.5 | 0.02 | 0.26 | 0.26 | 93 | 1008.0 |
| 20260506174028 | 58 | 205 | 0.9 | 3.5 | 0.02 | 0.26 | 0.26 | 93 | 1008.0 |
| 20260506173527 | 58 | 273 | 0.0 | 0.9 | 0.03 | 0.26 | 0.26 | 93 | 1008.0 |
| 20260506173027 | 58 | 256 | 0.0 | 0.9 | 0.04 | 0.26 | 0.26 | 93 | 1007.9 |
| 20260506172526 | 58 | 210 | 0.0 | 2.6 | 0.03 | 0.25 | 0.25 | 93 | 1008.0 |
| 20260506172026 | 57 | 172 | 0.0 | 2.6 | 0.04 | 0.25 | 0.25 | 93 | 1008.0 |
| 20260506171526 | 57 | 260 | 0.9 | 2.6 | 0.04 | 0.25 | 0.25 | 93 | 1007.9 |
| 20260506171024 | 57 | 215 | 0.9 | 2.6 | 0.04 | 0.25 | 0.25 | 93 | 1008.0 |
| 20260506170523 | 57 | 180 | 0.0 | 1.7 | 0.05 | 0.25 | 0.25 | 93 | 1007.9 |
| 20260506170016 | 57 | 221 | 0.0 | 1.7 | 0.05 | 0.25 | 0.25 | 93 | 1008.0 |
| 20260506165516 | 57 | 270 | 0.0 | 1.7 | 0.06 | 0.25 | 0.25 | 93 | 1008.0 |
| 20260506165016 | 57 | 179 | 0.0 | 1.7 | 0.07 | 0.25 | 0.25 | 93 | 1007.9 |
| 20260506164535 | 57 | 217 | 0.0 | 1.7 | 0.07 | 0.24 | 0.24 | 93 | 1008.0 |
| 20260506164032 | 57 | 215 | 0.9 | 2.6 | 0.08 | 0.24 | 0.24 | 93 | 1007.9 |
| 20260506163530 | 57 | 292 | 0.0 | 0.9 | 0.07 | 0.23 | 0.23 | 93 | 1007.9 |
| 20260506163029 | 57 | 221 | 0.0 | 1.7 | 0.07 | 0.22 | 0.22 | 93 | 1008.0 |
| 20260506162529 | 57 | 245 | 0.0 | 6.1 | 0.08 | 0.22 | 0.22 | 93 | 1008.1 |
| 20260506162028 | 57 | 86 | 0.9 | 6.1 | 0.07 | 0.21 | 0.21 | 93 | 1008.1 |
| 20260506161527 | 57 | 284 | 0.0 | 2.6 | 0.07 | 0.21 | 0.21 | 93 | 1008.2 |
| 20260506161026 | 57 | 194 | 0.0 | 2.6 | 0.07 | 0.21 | 0.21 | 93 | 1008.1 |
| 20260506160525 | 57 | 13 | 0.9 | 2.6 | 0.07 | 0.20 | 0.20 | 93 | 1008.2 |
| 20260506160021 | 57 | 68 | 0.0 | 2.6 | 0.07 | 0.20 | 0.20 | 93 | 1008.3 |
| 20260506155519 | 57 | 228 | 0.9 | 2.6 | 0.07 | 0.19 | 0.19 | 93 | 1008.3 |
| 20260506155016 | 57 | 67 | 0.0 | 1.7 | 0.07 | 0.18 | 0.18 | 93 | 1008.5 |
| 20260506154533 | 57 | 208 | 0.9 | 1.7 | 0.07 | 0.17 | 0.17 | 93 | 1008.6 |
| 20260506154050 | 57 | 49 | 0.0 | 0.9 | 0.06 | 0.16 | 0.16 | 93 | 1008.8 |
| 20260506153528 | 57 | 100 | 0.0 | 1.7 | 0.06 | 0.15 | 0.15 | 93 | 1008.8 |
| 20260506153028 | 57 | 252 | 0.0 | 4.3 | 0.07 | 0.15 | 0.15 | 92 | 1008.8 |
| 20260506152527 | 57 | 207 | 0.9 | 4.3 | 0.06 | 0.14 | 0.14 | 92 | 1008.6 |
| 20260506152026 | 57 | 233 | 0.0 | 1.7 | 0.07 | 0.14 | 0.14 | 92 | 1008.6 |
| 20260506151524 | 57 | 224 | 0.0 | 0.9 | 0.07 | 0.14 | 0.14 | 92 | 1008.6 |
| 20260506151044 | 57 | 224 | 0.0 | 1.7 | 0.08 | 0.14 | 0.14 | 92 | 1008.5 |
| 20260506150522 | 57 | 133 | 0.0 | 1.7 | 0.07 | 0.13 | 0.13 | 92 | 1008.4 |
| 20260506150038 | 58 | 223 | 0.0 | 1.7 | 0.08 | 0.13 | 0.13 | 92 | 1008.4 |
| 20260506145516 | 58 | 217 | 0.0 | 1.7 | 0.08 | 0.12 | 0.12 | 92 | 1008.4 |
| 20260506145014 | 58 | 221 | 0.0 | 1.7 | 0.07 | 0.11 | 0.11 | 92 | 1008.5 |
| 20260506144513 | 58 | 72 | 0.0 | 1.7 | 0.06 | 0.10 | 0.10 | 92 | 1008.4 |
| 20260506144012 | 58 | 212 | 0.0 | 1.7 | 0.06 | 0.09 | 0.09 | 92 | 1008.6 |
| 20260506143513 | 58 | 222 | 0.0 | 1.7 | 0.06 | 0.09 | 0.09 | 92 | 1008.7 |
| 20260506143012 | 57 | 91 | 0.0 | 0.9 | 0.05 | 0.08 | 0.08 | 92 | 1008.7 |
| 20260506142529 | 58 | 89 | 0.0 | 0.9 | 0.06 | 0.08 | 0.08 | 92 | 1008.9 |
| 20260506142028 | 58 | 127 | 0.0 | 0.9 | 0.05 | 0.07 | 0.07 | 92 | 1009.1 |
| 20260506141546 | 58 | 109 | 0.0 | 0.9 | 0.06 | 0.07 | 0.07 | 91 | 1009.1 |
| 20260506141022 | 58 | 226 | 0.0 | 0.9 | 0.05 | 0.06 | 0.06 | 91 | 1009.2 |
| 20260506140519 | 58 | 230 | 0.0 | 0.9 | 0.05 | 0.06 | 0.06 | 91 | 1009.1 |
| 20260506140030 | 58 | 219 | 0.0 | 0.9 | 0.04 | 0.05 | 0.05 | 91 | 1009.3 |
| 20260506135528 | 58 | 173 | 0.0 | 0.9 | 0.03 | 0.04 | 0.04 | 91 | 1009.3 |
| 20260506135045 | 58 | 231 | 0.0 | 0.9 | 0.03 | 0.04 | 0.04 | 91 | 1009.4 |
| 20260506134523 | 58 | 105 | 0.0 | 0.9 | 0.04 | 0.04 | 0.04 | 91 | 1009.4 |
| 20260506134037 | 58 | 130 | 0.0 | 1.7 | 0.03 | 0.03 | 0.03 | 90 | 1009.5 |
| 20260506133515 | 58 | 252 | 0.0 | 1.7 | 0.03 | 0.03 | 0.03 | 90 | 1009.5 |
| 20260506133014 | 58 | 211 | 0.0 | 0.9 | 0.03 | 0.03 | 0.03 | 90 | 1009.6 |
| 20260506132513 | 58 | 70 | 0.0 | 0.9 | 0.02 | 0.02 | 0.02 | 90 | 1009.6 |
| 20260506132012 | 58 | 232 | 0.0 | 0.9 | 0.02 | 0.02 | 0.02 | 89 | 1009.7 |
| 20260506131531 | 58 | 174 | 0.0 | 1.7 | 0.01 | 0.01 | 0.01 | 89 | 1009.7 |
| 20260506131030 | 58 | 252 | 0.0 | 1.7 | 0.01 | 0.01 | 0.01 | 89 | 1009.7 |
| 20260506130549 | 58 | 214 | 0.0 | 0.9 | 0.01 | 0.01 | 0.01 | 89 | 1009.6 |
| 20260506130023 | 58 | 89 | 0.0 | 0.9 | 0.01 | 0.01 | 0.01 | 88 | 1009.5 |
| 20260506125542 | 58 | 268 | 0.0 | 0.9 | 0.01 | 0.01 | 0.01 | 88 | 1009.5 |
| 20260506125020 | 58 | 221 | 0.0 | 1.7 | 0.00 | 0.00 | 0.00 | 88 | 1009.4 |
| 20260506124519 | 58 | 196 | 0.0 | 1.7 | 0.00 | 0.00 | 0.00 | 88 | 1009.3 |
| 20260506124018 | 58 | 85 | 0.9 | 1.7 | 0.00 | 0.00 | 0.00 | 88 | 1009.2 |
| 20260506123517 | 58 | 210 | 0.0 | 0.9 | 0.00 | 0.00 | 0.00 | 87 | 1009.1 |
| 20260506123016 | 58 | 167 | 0.0 | 0.9 | 0.00 | 0.00 | 0.00 | 87 | 1009.1 |
| 20260506122516 | 58 | 219 | 0.0 | 0.9 | 0.00 | 0.00 | 0.00 | 87 | 1009.2 |
| 20260506122034 | 59 | 241 | 0.0 | 1.7 | 0.00 | 0.00 | 0.00 | 86 | 1009.1 |
| 20260506121530 | 59 | 81 | 0.0 | 1.7 | 0.00 | 0.00 | 0.00 | 85 | 1009.3 |
| 20260506121028 | 59 | 214 | 0.0 | 1.7 | 0.00 | 0.00 | 0.00 | 85 | 1009.3 |
| 20260506120526 | 59 | 246 | 0.0 | 1.7 | 0.00 | 0.00 | 0.00 | 84 | 1009.3 |
| 20260506120021 | 59 | 191 | 0.0 | 0.9 | 0.00 | 0.00 | 0.00 | 83 | 1009.3 |
| 20260506115519 | 59 | 153 | 0.0 | 0.9 | 0.00 | 0.00 | 0.00 | 82 | 1009.5 |
| 20260506115018 | 59 | 65 | 0.0 | 0.9 | 0.00 | 0.00 | 0.00 | 81 | 1009.4 |
| 20260506114517 | 60 | 229 | 0.0 | 1.7 | 0.00 | 0.00 | 0.00 | 80 | 1009.4 |
| 20260506114016 | 60 | 193 | 0.0 | 1.7 | 0.00 | 0.00 | 0.00 | 79 | 1009.5 |
| 20260506113515 | 60 | 86 | 0.0 | 0.9 | 0.00 | 0.00 | 0.00 | 78 | 1009.3 |
| 20260506113016 | 60 | 199 | 0.0 | 0.9 | 0.00 | 0.00 | 0.00 | 77 | 1009.3 |
| 20260506112516 | 60 | 85 | 0.0 | 0.9 | 0.00 | 0.00 | 0.00 | 76 | 1009.4 |
| 20260506112016 | 60 | 208 | 0.0 | 0.9 | 0.00 | 0.00 | 0.00 | 76 | 1009.2 |
| 20260506111535 | 60 | 166 | 0.0 | 1.7 | 0.00 | 0.00 | 0.00 | 76 | 1009.4 |
| 20260506111054 | 60 | 236 | 0.0 | 1.7 | 0.00 | 0.00 | 0.00 | 75 | 1009.2 |
| 20260506110553 | 60 | 134 | 0.0 | 0.9 | 0.00 | 0.00 | 0.00 | 75 | 1009.1 |
| 20260506110029 | 60 | 242 | 0.0 | 0.9 | 0.00 | 0.00 | 0.00 | 75 | 1009.2 |
| 20260506105530 | 60 | 249 | 0.0 | 0.9 | 0.00 | 0.00 | 0.00 | 75 | 1008.9 |
| 20260506105050 | 60 | 102 | 0.0 | 1.7 | 0.00 | 0.00 | 0.00 | 75 | 1008.8 |
| 20260506104529 | 60 | 70 | 0.0 | 1.7 | 0.00 | 0.00 | 0.00 | 74 | 1008.8 |
| 20260506104029 | 60 | 143 | 0.0 | 1.7 | 0.00 | 0.00 | 0.00 | 74 | 1008.8 |
| 20260506103529 | 60 | 260 | 0.0 | 0.0 | 0.00 | 0.00 | 0.00 | 73 | 1008.8 |
| 20260506103027 | 60 | 102 | 0.0 | 0.0 | 0.00 | 0.00 | 0.00 | 73 | 1008.9 |
| 20260506102523 | 60 | 103 | 0.0 | 0.9 | 0.00 | 0.00 | 0.00 | 72 | 1008.7 |
| 20260506102020 | 60 | 170 | 0.0 | 0.9 | 0.00 | 0.00 | 0.00 | 72 | 1008.8 |
| 20260506101517 | 60 | 217 | 0.0 | 0.9 | 0.00 | 0.00 | 0.00 | 72 | 1008.8 |
| 20260506101034 | 60 | 120 | 0.0 | 0.0 | 0.00 | 0.00 | 0.00 | 72 | 1008.8 |
| 20260506100529 | 60 | 127 | 0.0 | 0.0 | 0.00 | 0.00 | 0.00 | 71 | 1008.9 |
| 20260506100041 | 60 | 127 | 0.0 | 0.9 | 0.00 | 0.00 | 0.00 | 71 | 1009.0 |
| 20260506095517 | 60 | 128 | 0.0 | 0.9 | 0.00 | 0.00 | 0.00 | 70 | 1009.0 |
| 20260506095014 | 60 | 217 | 0.0 | 0.0 | 0.00 | 0.00 | 0.00 | 70 | 1009.0 |
| 20260506094527 | 60 | 218 | 0.0 | 0.0 | 0.00 | 0.00 | 0.00 | 69 | 1008.9 |
| 20260506094024 | 60 | 218 | 0.0 | 0.9 | 0.00 | 0.00 | 0.00 | 69 | 1009.0 |
| 20260506093521 | 60 | 219 | 0.0 | 0.9 | 0.00 | 0.00 | 0.00 | 69 | 1008.9 |
| 20260506093040 | 60 | 217 | 0.0 | 0.9 | 0.00 | 0.00 | 0.00 | 68 | 1008.9 |
| 20260506092537 | 60 | 194 | 0.0 | 0.9 | 0.00 | 0.00 | 0.00 | 68 | 1009.0 |
| 20260506092015 | 60 | 200 | 0.0 | 0.0 | 0.00 | 0.00 | 0.00 | 67 | 1009.0 |
| 20260506091514 | 61 | 204 | 0.0 | 0.9 | 0.00 | 0.00 | 0.00 | 67 | 1009.1 |
| 20260506091033 | 61 | 82 | 0.0 | 0.9 | 0.00 | 0.00 | 0.00 | 67 | 1009.0 |
| 20260506090552 | 61 | 142 | 0.0 | 0.9 | 0.00 | 0.00 | 0.00 | 66 | 1009.0 |
| 20260506090026 | 61 | 77 | 0.0 | 0.0 | 0.00 | 0.00 | 0.00 | 66 | 1009.0 |
| 20260506085525 | 61 | 162 | 0.0 | 0.0 | 0.00 | 0.00 | 0.00 | 65 | 1009.4 |
| 20260506085025 | 61 | 243 | 0.0 | 0.0 | 0.00 | 0.00 | 0.00 | 65 | 1009.4 |
| 20260506084525 | 61 | 242 | 0.0 | 0.9 | 0.00 | 0.00 | 0.00 | 65 | 1009.3 |
| 20260506084025 | 61 | 280 | 0.0 | 0.9 | 0.00 | 0.00 | 0.00 | 65 | 1009.3 |
| 20260506083525 | 61 | 233 | 0.0 | 0.9 | 0.00 | 0.00 | 0.00 | 64 | 1009.2 |
| 20260506083023 | 61 | 158 | 0.0 | 0.9 | 0.00 | 0.00 | 0.00 | 64 | 1009.1 |
| 20260506082522 | 61 | 212 | 0.0 | 0.9 | 0.00 | 0.00 | 0.00 | 64 | 1009.2 |
| 20260506082021 | 61 | 242 | 0.0 | 0.9 | 0.00 | 0.00 | 0.00 | 64 | 1009.1 |
| 20260506081520 | 62 | 246 | 0.0 | 0.9 | 0.00 | 0.00 | 0.00 | 64 | 1009.1 |
| 20260506081020 | 62 | 236 | 0.0 | 0.0 | 0.00 | 0.00 | 0.00 | 64 | 1009.1 |
| 20260506080519 | 62 | 30 | 0.0 | 0.9 | 0.00 | 0.00 | 0.00 | 63 | 1009.2 |
| 20260506073049 | 62 | 250 | 0.0 | 0.9 | 0.00 | 0.00 | 0.00 | 61 | 1009.4 |
| 20260506072527 | 62 | 250 | 0.0 | 0.9 | 0.00 | 0.00 | 0.00 | 61 | 1009.4 |
| 20260506072046 | 62 | 84 | 0.0 | 1.7 | 0.00 | 0.00 | 0.00 | 61 | 1009.5 |
| 20260506071524 | 62 | 186 | 0.0 | 1.7 | 0.00 | 0.00 | 0.00 | 61 | 1009.4 |
| 20260506071023 | 62 | 300 | 0.0 | 1.7 | 0.00 | 0.00 | 0.00 | 61 | 1009.5 |
| 20260506070542 | 62 | 222 | 0.0 | 1.7 | 0.00 | 0.00 | 0.00 | 61 | 1009.5 |
| 20260506062027 | 62 | 72 | 0.0 | 0.9 | 0.00 | 0.00 | 0.00 | 60 | 1010.0 |
| 20260506061526 | 62 | 130 | 0.0 | 1.7 | 0.00 | 0.00 | 0.00 | 60 | 1010.1 |
| 20260506061044 | 63 | 68 | 0.0 | 1.7 | 0.00 | 0.00 | 0.00 | 60 | 1010.1 |
| 20260506060522 | 63 | 70 | 0.0 | 0.9 | 0.00 | 0.00 | 0.00 | 59 | 1010.1 |
| 20260506051037 | 64 | 131 | 0.0 | 0.9 | 0.00 | 0.00 | 0.00 | 56 | 1010.3 |
| 20260506050533 | 64 | 242 | 0.0 | 1.7 | 0.00 | 0.00 | 0.00 | 55 | 1010.3 |
| 20260506045022 | 65 | 33 | 0.0 | 0.9 | 0.00 | 0.00 | 0.00 | 55 | 1010.4 |
| 20260506044542 | 65 | 29 | 0.0 | 0.9 | 0.00 | 0.00 | 0.00 | 54 | 1010.4 |
| 20260506044021 | 65 | 246 | 0.0 | 0.9 | 0.00 | 0.00 | 0.00 | 54 | 1010.4 |
| 20260506043521 | 65 | 208 | 0.0 | 0.9 | 0.00 | 0.00 | 0.00 | 54 | 1010.4 |
| 20260506043021 | 65 | 240 | 0.0 | 0.9 | 0.00 | 0.00 | 0.00 | 54 | 1010.3 |
| 20260506042520 | 65 | 92 | 0.0 | 2.6 | 0.00 | 0.00 | 0.00 | 53 | 1010.4 |
| 20260506042020 | 65 | 203 | 0.0 | 2.6 | 0.00 | 0.00 | 0.00 | 53 | 1010.3 |
| 20260506041048 | 65 | 181 | 0.0 | 2.6 | 0.00 | 0.00 | 0.00 | 52 | 1010.4 |
| 20260506040526 | 65 | 225 | 0.0 | 0.9 | 0.00 | 0.00 | 0.00 | 53 | 1010.5 |
| 20260506040021 | 65 | 195 | 0.0 | 1.7 | 0.00 | 0.00 | 0.00 | 53 | 1010.5 |
| 20260506035513 | 65 | 155 | 0.0 | 1.7 | 0.00 | 0.00 | 0.00 | 52 | 1010.4 |
| 20260506035031 | 65 | 205 | 0.0 | 1.7 | 0.00 | 0.00 | 0.00 | 52 | 1010.4 |
| 20260506034525 | 66 | 96 | 0.0 | 1.7 | 0.00 | 0.00 | 0.00 | 51 | 1010.5 |
| 20260506034024 | 66 | 177 | 0.0 | 0.9 | 0.00 | 0.00 | 0.00 | 51 | 1010.4 |
| 20260506033525 | 66 | 208 | 0.0 | 0.0 | 0.00 | 0.00 | 0.00 | 51 | 1010.5 |
| 20260506033026 | 66 | 101 | 0.0 | 1.7 | 0.00 | 0.00 | 0.00 | 50 | 1010.4 |
| 20260506032526 | 66 | 187 | 0.0 | 1.7 | 0.00 | 0.00 | 0.00 | 50 | 1010.3 |
| 20260506032026 | 67 | 204 | 0.0 | 1.7 | 0.00 | 0.00 | 0.00 | 50 | 1010.4 |
| 20260506031526 | 67 | 149 | 0.0 | 1.7 | 0.00 | 0.00 | 0.00 | 49 | 1010.4 |
| 20260506031026 | 67 | 243 | 0.0 | 5.2 | 0.00 | 0.00 | 0.00 | 49 | 1010.4 |
| 20260506030545 | 67 | 245 | 0.0 | 5.2 | 0.00 | 0.00 | 0.00 | 49 | 1010.4 |
| 20260506030041 | 67 | 285 | 0.0 | 0.9 | 0.00 | 0.00 | 0.00 | 49 | 1010.4 |
| 20260506025518 | 67 | 257 | 0.0 | 2.6 | 0.00 | 0.00 | 0.00 | 49 | 1010.4 |
| 20260506025016 | 67 | 61 | 0.0 | 2.6 | 0.00 | 0.00 | 0.00 | 49 | 1010.3 |
| 20260506024515 | 67 | 238 | 0.0 | 1.7 | 0.00 | 0.00 | 0.00 | 48 | 1010.4 |
| 20260506024033 | 67 | 194 | 0.0 | 1.7 | 0.00 | 0.00 | 0.00 | 48 | 1010.4 |
| 20260506023550 | 68 | 214 | 0.0 | 2.6 | 0.00 | 0.00 | 0.00 | 48 | 1010.6 |
| 20260506023048 | 68 | 250 | 0.0 | 0.9 | 0.00 | 0.00 | 0.00 | 48 | 1010.5 |
| 20260506022528 | 68 | 243 | 0.0 | 0.9 | 0.00 | 0.00 | 0.00 | 48 | 1010.6 |
| 20260506022022 | 68 | 275 | 0.0 | 0.9 | 0.00 | 0.00 | 0.00 | 47 | 1010.6 |
| 20260506021519 | 68 | 242 | 0.0 | 2.6 | 0.00 | 0.00 | 0.00 | 47 | 1010.6 |
| 20260506021016 | 68 | 186 | 0.0 | 2.6 | 0.00 | 0.00 | 0.00 | 47 | 1010.5 |
| 20260506020513 | 69 | 170 | 0.0 | 1.7 | 0.00 | 0.00 | 0.00 | 46 | 1010.6 |
| 20260506020028 | 69 | 257 | 0.0 | 2.6 | 0.00 | 0.00 | 0.00 | 46 | 1010.5 |
| 20260506015528 | 69 | 198 | 0.9 | 2.6 | 0.00 | 0.00 | 0.00 | 46 | 1010.6 |
| 20260506015028 | 69 | 225 | 0.0 | 1.7 | 0.00 | 0.00 | 0.00 | 46 | 1010.5 |
| 20260506014529 | 69 | 234 | 0.0 | 1.7 | 0.00 | 0.00 | 0.00 | 46 | 1010.4 |
| 20260506014030 | 69 | 208 | 0.0 | 0.9 | 0.00 | 0.00 | 0.00 | 45 | 1010.4 |
| 20260506013512 | 69 | 226 | 0.0 | 0.9 | 0.00 | 0.00 | 0.00 | 46 | 1010.3 |
| 20260506013013 | 69 | 233 | 0.0 | 2.6 | 0.00 | 0.00 | 0.00 | 45 | 1010.3 |
| 20260506012513 | 69 | 212 | 0.0 | 2.6 | 0.00 | 0.00 | 0.00 | 45 | 1010.2 |
| 20260506012013 | 70 | 84 | 0.0 | 2.6 | 0.00 | 0.00 | 0.00 | 44 | 1010.2 |
| 20260506011513 | 70 | 170 | 0.0 | 1.7 | 0.00 | 0.00 | 0.00 | 43 | 1010.0 |
| 20260506011014 | 70 | 184 | 0.0 | 1.7 | 0.00 | 0.00 | 0.00 | 43 | 1010.0 |
| 20260506010514 | 70 | 239 | 0.0 | 2.6 | 0.00 | 0.00 | 0.00 | 43 | 1009.9 |
| 20260506010044 | 70 | 233 | 0.9 | 2.6 | 0.00 | 0.00 | 0.00 | 43 | 1009.8 |
| 20260506005520 | 70 | 68 | 0.0 | 6.1 | 0.00 | 0.00 | 0.00 | 43 | 1009.8 |
| 20260506005017 | 70 | 40 | 0.9 | 6.1 | 0.00 | 0.00 | 0.00 | 43 | 1009.8 |
| 20260506004516 | 70 | 214 | 0.0 | 2.6 | 0.00 | 0.00 | 0.00 | 43 | 1009.7 |
| 20260506004013 | 70 | 220 | 0.0 | 0.9 | 0.00 | 0.00 | 0.00 | 43 | 1009.8 |
| 20260506003530 | 71 | 87 | 0.0 | 0.9 | 0.00 | 0.00 | 0.00 | 43 | 1009.7 |
| 20260506003028 | 71 | 248 | 0.0 | 0.9 | 0.00 | 0.00 | 0.00 | 43 | 1009.6 |
| 20260506002528 | 71 | 215 | 0.0 | 0.0 | 0.00 | 0.00 | 0.00 | 43 | 1009.5 |
| 20260506002028 | 71 | 218 | 0.0 | 0.0 | 0.00 | 0.00 | 0.00 | 43 | 1009.5 |
| 20260506001547 | 71 | 215 | 0.0 | 0.0 | 0.00 | 0.00 | 0.00 | 43 | 1009.5 |
| 20260506001024 | 71 | 214 | 0.0 | 0.0 | 0.00 | 0.00 | 0.00 | 44 | 1009.4 |
| 20260506000523 | 71 | 256 | 0.0 | 0.0 | 0.00 | 0.00 | 0.00 | 43 | 1009.4 |
| 20260506000020 | 71 | 281 | 0.0 | 0.0 | 0.00 | 0.00 | 0.00 | 43 | 1009.4 |
| 20260505235540 | 71 | 194 | 0.0 | 0.0 | 0.00 | 0.00 | 0.00 | 43 | 1009.5 |
| 20260505235018 | 71 | 83 | 0.0 | 0.0 | 0.00 | 0.00 | 0.00 | 42 | 1009.4 |
| 20260505234519 | 71 | 270 | 0.0 | 0.0 | 0.00 | 0.00 | 0.00 | 42 | 1009.4 |
| 20260505234038 | 71 | 215 | 0.0 | 0.0 | 0.00 | 0.00 | 0.00 | 42 | 1009.4 |
| 20260505233516 | 71 | 214 | 0.0 | 0.0 | 0.00 | 0.00 | 0.00 | 41 | 1009.5 |
| 20260505233015 | 71 | 236 | 0.0 | 0.0 | 0.00 | 0.00 | 0.00 | 41 | 1009.4 |
| 20260505232513 | 72 | 217 | 0.0 | 0.0 | 0.00 | 0.00 | 0.00 | 41 | 1009.4 |
| 20260505232032 | 72 | 129 | 0.0 | 0.0 | 0.00 | 0.00 | 0.00 | 41 | 1009.4 |
| 20260505231551 | 72 | 253 | 0.0 | 1.7 | 0.00 | 0.00 | 0.00 | 40 | 1009.4 |
| 20260505231029 | 72 | 262 | 0.0 | 1.7 | 0.00 | 0.00 | 0.00 | 40 | 1009.3 |
| 20260505230548 | 72 | 197 | 0.9 | 2.6 | 0.00 | 0.00 | 0.00 | 40 | 1009.4 |
| 20260505230020 | 72 | 207 | 0.9 | 2.6 | 0.00 | 0.00 | 0.00 | 40 | 1009.3 |
| 20260505225518 | 73 | 231 | 0.0 | 6.1 | 0.00 | 0.00 | 0.00 | 39 | 1009.2 |
| 20260505225036 | 73 | 212 | 0.0 | 6.1 | 0.00 | 0.00 | 0.00 | 39 | 1009.1 |
| 20260505224514 | 73 | 238 | 0.0 | 3.5 | 0.00 | 0.00 | 0.00 | 39 | 1009.0 |
| 20260505224031 | 73 | 221 | 0.9 | 4.3 | 0.00 | 0.00 | 0.00 | 40 | 1009.1 |
| 20260505223528 | 73 | 221 | 0.9 | 4.3 | 0.00 | 0.00 | 0.00 | 39 | 1009.0 |
| 20260505223025 | 73 | 221 | 0.0 | 3.5 | 0.00 | 0.00 | 0.00 | 39 | 1009.1 |
| 20260505222523 | 73 | 269 | 0.0 | 2.6 | 0.00 | 0.00 | 0.00 | 40 | 1009.0 |
| 20260505222041 | 73 | 229 | 0.0 | 2.6 | 0.00 | 0.00 | 0.00 | 40 | 1008.9 |
| 20260505221517 | 73 | 263 | 0.9 | 3.5 | 0.00 | 0.00 | 0.00 | 39 | 1009.0 |
| 20260505221035 | 73 | 238 | 0.9 | 3.5 | 0.00 | 0.00 | 0.00 | 39 | 1009.0 |
| 20260505220531 | 73 | 203 | 0.9 | 3.5 | 0.00 | 0.00 | 0.00 | 39 | 1009.0 |
| 20260505220026 | 73 | 176 | 0.0 | 4.3 | 0.00 | 0.00 | 0.00 | 39 | 1009.0 |
| 20260505215526 | 74 | 264 | 0.9 | 5.2 | 0.00 | 0.00 | 0.00 | 39 | 1008.9 |
| 20260505215025 | 74 | 243 | 0.0 | 5.2 | 0.00 | 0.00 | 0.00 | 38 | 1008.8 |
| 20260505214525 | 74 | 267 | 0.0 | 3.5 | 0.00 | 0.00 | 0.00 | 38 | 1008.8 |
| 20260505214024 | 74 | 266 | 0.9 | 5.2 | 0.00 | 0.00 | 0.00 | 37 | 1008.7 |
| 20260505213522 | 74 | 278 | 1.7 | 5.2 | 0.00 | 0.00 | 0.00 | 35 | 1008.7 |
| 20260505213021 | 74 | 248 | 0.9 | 6.1 | 0.00 | 0.00 | 0.00 | 34 | 1008.7 |
| 20260505212518 | 74 | 277 | 0.9 | 7.8 | 0.00 | 0.00 | 0.00 | 33 | 1008.6 |
| 20260505212015 | 74 | 208 | 3.5 | 7.8 | 0.00 | 0.00 | 0.00 | 33 | 1008.6 |
| 20260505211527 | 74 | 55 | 2.6 | 6.1 | 0.00 | 0.00 | 0.00 | 32 | 1008.5 |
| 20260505211023 | 74 | 246 | 1.7 | 5.2 | 0.00 | 0.00 | 0.00 | 33 | 1008.4 |
| 20260505210540 | 75 | 207 | 0.0 | 5.2 | 0.00 | 0.00 | 0.00 | 33 | 1008.4 |
| 20260505210013 | 75 | 212 | 0.9 | 4.3 | 0.00 | 0.00 | 0.00 | 33 | 1008.4 |
| 20260505205530 | 75 | 192 | 0.9 | 6.1 | 0.00 | 0.00 | 0.00 | 32 | 1008.3 |
| 20260505205027 | 75 | 345 | 0.9 | 6.1 | 0.00 | 0.00 | 0.00 | 32 | 1008.3 |
| 20260505204524 | 75 | 82 | 0.9 | 4.3 | 0.00 | 0.00 | 0.00 | 31 | 1008.4 |
| 20260505204021 | 76 | 290 | 0.0 | 4.3 | 0.00 | 0.00 | 0.00 | 31 | 1008.3 |
| 20260505203519 | 76 | 219 | 0.9 | 7.0 | 0.00 | 0.00 | 0.00 | 32 | 1008.3 |
| 20260505203018 | 77 | 284 | 0.0 | 7.0 | 0.00 | 0.00 | 0.00 | 31 | 1008.3 |
| 20260505202516 | 78 | 51 | 0.9 | 7.0 | 0.00 | 0.00 | 0.00 | 30 | 1008.4 |